Temp
9 9 9 9 9 9 8 9 9 11 9 11 9 9 9 9 9 10 9 9 9 8 8 7 7 7 7 8 8 8 8 9 8 7 8 8 8 8 7 7 7 7 6 6
10 10 9 9 10 9 8 9 8 9 8 10 9 8 9 9 9 10 9 9 8 8 7 7 7 6 6 6 6 7 7 7 7 7 8 7 7 7 7 6 6 6 5 5
9 9 9 10 11 11 11 9 10 10 10 10 11 10 9 8 8 9 9 9 8 7 7 6 6 7 6 6 7 7 7 6 6 7 7 7 7 6 6 6 5 5 4 4
7 8 11 14 13 12 11 11 10 10 10 10 11 10 9 8 7 7 8 7 7 6 6 6 5 6 6 6 6 6 6 7 7 7 6 6 6 6 5 4 4 4 4 3
7 7 10 14 12 12 13 13 11 12 11 10 9 9 9 9 8 7 7 6 6 6 7 8 7 6 7 6 6 6 6 6 6 6 6 5 5 4 4 4 4 3 2 2
6 9 11 14 13 13 13 12 12 11 10 9 9 9 8 8 7 6 5 6 6 6 7 7 6 7 7 6 6 6 6 6 6 6 6 5 4 4 3 3 3 2 1 1
8 8 9 11 12 12 14 14 12 11 10 9 10 9 9 6 6 5 5 5 6 6 6 6 6 7 6 5 6 6 6 6 5 5 5 4 4 4 3 2 2 1 1 -0
6 7 8 11 11 13 13 11 12 10 10 9 10 9 7 6 5 4 4 5 5 5 4 5 5 7 5 5 5 5 5 5 4 4 4 4 4 2 2 2 1 0 -0 -1
8 9 10 11 11 12 11 11 12 11 10 9 9 9 7 6 5 4 4 4 5 5 4 4 5 6 5 4 4 4 4 4 4 3 3 3 3 2 1 1 0 -1 -1 -2
10 13 10 10 11 11 11 11 12 11 10 9 10 7 7 6 5 4 4 4 5 4 4 3 5 5 5 4 4 4 3 3 3 3 2 2 2 1 1 0 -1 -1 -2 -3
9 10 10 10 9 11 11 10 11 11 10 9 10 8 8 7 5 5 4 5 5 4 3 3 4 4 4 4 4 4 3 3 2 2 2 1 1 0 0 -0 -1 -2 -2 -3
9 11 11 10 9 10 9 9 9 10 11 10 9 8 8 7 6 6 5 5 5 5 5 4 4 4 4 4 4 4 3 2 2 2 1 0 0 -1 -1 -1 -2 -2 -3 -3
11 9 8 7 7 8 8 8 9 9 9 9 9 7 7 6 6 6 5 5 5 5 5 4 4 4 4 4 4 4 4 2 2 1 1 0 -1 -1 -2 -2 -3 -2 -3 -4
6 7 8 8 8 8 7 8 8 8 7 7 8 7 7 5 6 5 4 5 5 5 5 4 4 4 4 4 4 4 3 2 2 1 1 -0 -1 -1 -2 -2 -2 -3 -3 -4
7 5 7 7 6 6 6 5 7 6 5 6 6 6 6 4 4 4 5 5 5 5 4 4 4 3 3 3 3 3 3 2 1 1 0 -1 -1 -2 -2 -3 -3 -4 -4 -4
9 5 4 5 5 5 5 5 6 5 5 4 4 5 5 5 5 4 4 5 3 2 3 3 3 3 3 3 3 3 2 1 1 0 -1 -1 -1 -2 -3 -3 -4 -4 -4 -5
4 2 3 3 4 4 4 4 4 4 3 3 3 4 4 4 3 3 3 4 4 4 4 4 3 3 3 3 3 2 2 1 0 -0 -1 -1 -2 -2 -3 -3 -4 -4 -4 -5
6 7 4 4 3 3 3 3 3 3 2 3 3 3 2 2 1 1 2 3 3 2 3 3 3 3 2 2 2 2 1 1 0 -0 -1 -2 -2 -3 -3 -4 -4 -5 -5 -5
2 2 2 2 2 2 2 0 1 2 2 2 2 1 1 2 2 1 2 2 2 1 1 2 3 3 2 2 2 1 1 0 -1 -1 -2 -2 -3 -3 -4 -4 -5 -5 -5 -6
1 1 1 1 1 1 -0 0 1 1 1 2 1 0 -1 -0 1 1 2 1 1 2 2 2 2 2 2 1 1 1 0 -0 -1 -2 -2 -3 -3 -4 -4 -5 -5 -5 -6 -6
-2 -2 -1 0 -1 -0 0 0 0 -0 0 1 1 -1 -1 -0 1 1 0 -0 0 2 2 2 1 1 1 1 0 -0 -1 -1 -2 -2 -3 -4 -4 -4 -4 -5 -5 -6 -6 -6
-2 -2 -2 -2 -2 -2 -1 -0 0 -0 -0 -0 -0 -0 -1 -1 -0 -0 0 1 0 1 1 1 1 1 0 -0 -0 -1 -1 -2 -2 -3 -3 -4 -4 -4 -5 -5 -5 -5 -5 -6
-3 -3 -3 -2 -3 -3 -2 -1 -1 -1 -1 -1 -1 -1 -1 -1 -0 -1 -2 -1 0 0 0 0 0 0 -0 -1 -1 -2 -2 -2 -3 -3 -3 -3 -3 -4 -4 -5 -5 -5 -5 -6
-4 -4 -4 -3 -3 -3 -4 -4 -3 -2 -2 -2 -2 -1 -1 -1 -2 -1 -1 -1 -1 -1 -1 -1 -1 -1 -2 -2 -2 -3 -3 -3 -3 -3 -3 -4 -4 -4 -4 -5 -5 -5 -5 -6
-4 -4 -4 -4 -4 -4 -4 -4 -4 -4 -4 -4 -3 -3 -1 -1 -1 -3 -2 -2 -2 -2 -2 -2 -2 -2 -3 -3 -4 -4 -4 -4 -4 -4 -4 -4 -5 -5 -5 -5 -5 -6 -6 -6
-5 -5 -5 -5 -5 -5 -4 -4 -4 -4 -5 -5 -5 -4 -4 -3 -3 -3 -3 -3 -3 -3 -3 -4 -4 -5 -5 -6 -5 -5 -5 -5 -5 -5 -5 -6 -6 -6 -6 -6 -7 -7 -7 -7
-5 -5 -6 -6 -6 -5 -5 -5 -5 -6 -5 -5 -6 -6 -5 -5 -5 -5 -5 -5 -5 -6 -6 -6 -6 -6 -6 -7 -7 -7 -7 -7 -7 -7 -7 -8 -7 -7 -7 -8 -8 -8 -8 -8
Height
801 794 790 788 784 780 789 777 781 750 761 743 746 744 740 739 741 740 739 738 739 739 738 737 736 736 737 741 746 752 758 766 775 781 787 795 799 805 808 812 818 820 823 824
790 784 786 782 768 771 774 772 774 766 764 742 741 741 740 740 742 740 740 742 743 744 743 743 742 744 744 746 749 755 761 768 773 782 790 797 802 806 808 814 819 821 822 823
792 789 780 769 755 752 752 760 755 755 747 742 738 738 740 742 743 741 743 745 746 746 747 746 745 748 750 753 756 761 766 772 781 788 792 794 802 808 810 816 819 819 822 825
807 793 777 742 742 744 748 745 748 747 743 742 739 740 741 743 745 745 745 747 748 750 749 752 753 756 756 760 762 768 776 778 784 790 794 800 804 807 811 818 820 820 825 828
811 809 770 737 741 744 741 736 735 735 739 740 744 742 743 744 746 746 749 750 751 751 752 754 758 761 762 767 771 775 778 783 790 792 796 802 806 809 811 816 820 824 828 830
812 798 772 736 736 739 739 745 730 734 739 743 745 752 750 744 747 749 750 751 753 754 755 757 761 763 766 770 773 776 781 787 791 794 799 804 808 810 813 819 823 827 828 831
801 800 775 743 737 738 738 736 729 733 737 743 743 743 742 745 749 750 751 753 755 757 758 760 763 765 769 774 776 780 785 790 795 800 804 807 809 812 816 821 825 827 829 831
803 804 786 740 742 739 730 729 727 732 734 737 737 740 745 744 746 750 753 755 757 759 762 765 767 769 773 777 781 785 790 794 800 804 806 809 811 815 820 823 825 827 830 831
769 758 739 737 734 731 732 731 725 729 730 733 737 740 744 747 750 753 754 757 760 762 765 769 771 774 777 782 786 790 794 798 803 806 809 812 815 818 820 823 827 829 830 832
753 731 737 735 732 731 730 731 724 726 727 729 732 739 743 746 750 752 755 758 761 765 768 771 774 777 780 784 788 792 796 801 805 807 811 814 816 819 822 825 827 828 830 830
749 738 735 731 733 729 726 727 725 726 727 727 728 730 734 742 747 751 755 760 763 766 769 773 776 779 783 787 790 794 798 802 806 808 811 814 818 821 823 824 826 827 827 827
745 733 734 731 730 728 728 727 727 725 726 727 729 733 737 741 742 746 751 756 762 766 769 773 777 781 785 789 792 795 799 803 806 809 813 816 818 820 823 825 826 826 826 826
732 734 736 734 730 728 730 727 726 727 726 727 728 730 733 738 743 747 751 754 758 762 768 773 777 781 786 790 793 796 798 803 806 810 812 815 818 821 823 825 825 825 825 824
735 733 733 730 728 726 729 729 726 728 729 728 728 730 733 736 741 745 750 755 758 762 767 771 776 781 785 789 793 797 801 804 806 810 813 815 818 820 821 822 823 823 823 823
729 729 727 725 726 727 726 729 729 729 730 730 728 730 733 736 739 743 748 753 758 762 767 771 776 781 786 790 794 798 801 804 807 810 813 815 817 818 819 820 821 821 822 823
716 720 723 723 723 725 726 727 727 729 730 731 730 729 732 736 741 745 749 754 758 762 766 771 775 781 786 790 794 798 801 804 807 809 811 813 815 817 818 819 820 820 821 821
715 720 721 720 718 720 721 725 724 725 729 730 731 730 732 735 740 747 751 755 758 762 766 770 776 781 785 790 793 797 800 803 805 807 809 811 813 814 816 817 818 818 818 817
692 694 699 703 711 715 718 721 723 723 727 730 731 731 734 738 741 747 752 757 761 765 769 773 777 781 785 789 792 795 798 801 803 805 808 810 811 813 814 815 816 815 815 814
692 694 697 701 705 711 715 719 721 723 726 732 733 734 738 741 744 749 753 758 762 766 770 774 778 781 784 788 791 794 797 799 802 804 806 808 809 811 812 812 813 812 812 812
694 695 699 703 705 710 717 719 720 723 727 732 733 736 741 746 749 752 756 761 765 768 771 774 779 782 785 788 791 793 796 798 800 802 803 806 807 808 809 810 810 810 810 810
695 699 701 704 709 713 720 720 721 724 732 735 736 740 743 749 752 755 759 764 768 771 774 778 781 785 787 789 791 793 794 796 798 799 801 803 805 806 806 807 807 807 807 806
700 704 709 710 712 721 722 723 725 729 732 738 742 743 747 752 755 759 763 767 770 773 775 778 781 784 787 789 790 792 793 795 796 797 798 800 800 801 802 802 802 802 802 801
709 713 717 718 718 724 724 727 730 733 739 745 746 750 752 755 759 762 766 771 774 775 776 779 782 784 786 788 789 791 792 792 793 794 795 797 797 797 797 797 797 797 796 796
720 724 728 725 724 725 730 736 738 743 747 750 753 756 757 759 763 766 769 773 776 777 777 780 782 784 785 786 788 789 790 790 791 792 793 793 793 793 793 792 791 791 791 791
729 733 733 731 732 738 742 745 747 751 754 758 759 761 763 764 767 772 774 776 777 777 779 781 783 784 785 785 786 787 788 788 788 789 789 789 788 788 787 786 786 785 785 784
739 741 742 742 744 746 748 750 754 759 761 762 764 765 767 769 772 774 776 777 777 778 779 781 783 783 783 784 785 785 785 785 785 785 784 784 783 782 782 781 781 780 780 780
749 750 750 751 752 755 757 759 760 763 765 766 768 771 773 775 776 776 777 778 778 779 780 781 783 783 783 782 783 782 782 782 781 780 779 778 777 777 776 776 776 775 775 774
Wind_Speed
11 18 16 17 18 14 11 14 7 10 7 15 8 8 6 4 1 2 3 5 6 6 7 10 11 14 18 21 26 31 33 32 29 26 27 26 25 24 23 20 18 17 16 14
12 10 3 12 16 13 9 7 11 15 15 10 6 1 2 3 3 3 3 4 6 7 7 8 12 13 15 22 25 28 30 30 29 26 26 26 25 23 23 21 18 16 15 13
7 6 13 6 5 5 4 5 5 5 7 5 3 1 3 4 4 5 5 5 6 6 5 6 13 17 18 21 26 25 28 30 31 31 29 27 24 23 22 19 17 16 13 9
5 7 4 5 2 4 5 8 8 5 6 4 2 2 3 2 6 5 6 5 5 6 8 9 10 14 19 19 23 26 28 29 28 29 29 27 25 23 22 18 16 14 10 7
2 2 9 5 1 3 3 6 6 4 3 2 1 2 3 1 1 3 3 3 6 11 10 10 11 17 22 23 27 29 29 29 29 29 29 26 25 23 20 16 13 11 9 7
2 2 5 3 1 2 2 4 4 5 5 5 4 1 4 6 5 5 7 10 12 12 13 15 14 19 23 23 26 28 27 26 25 25 26 24 23 21 18 14 13 10 9 6
6 4 9 8 3 3 1 4 2 5 5 7 4 3 3 6 4 5 8 11 12 13 15 15 16 19 22 22 23 23 24 24 24 23 24 22 19 17 15 14 12 10 8 6
4 4 8 5 3 4 2 2 2 4 5 7 3 2 4 5 8 8 10 12 12 13 14 15 18 22 21 20 21 24 26 26 25 23 21 19 18 16 14 13 11 8 6 4
10 7 4 5 4 4 2 4 3 3 5 7 5 4 6 5 6 5 10 14 14 17 16 15 18 23 25 24 26 28 28 26 23 21 19 16 16 16 14 10 9 8 5 3
2 4 6 7 5 4 2 6 2 4 6 8 6 6 6 6 6 6 11 13 15 18 16 15 17 21 27 28 29 29 28 25 23 21 18 16 13 12 11 10 8 6 5 2
4 7 6 6 6 5 6 5 3 1 2 6 6 10 11 9 8 10 14 16 20 19 18 19 19 22 27 28 28 27 25 23 20 18 17 16 12 10 7 6 4 4 2 2
5 2 2 8 7 4 6 5 5 3 2 3 5 7 5 5 12 16 16 19 18 18 20 20 20 24 25 25 26 26 24 20 18 17 16 14 12 11 7 5 5 3 2 4
13 1 4 7 6 2 4 4 3 4 4 4 3 7 9 5 13 15 18 22 22 21 20 21 21 23 24 23 22 22 22 20 18 16 14 13 12 11 11 7 4 1 2 2
5 2 5 4 5 4 3 3 1 1 1 1 2 6 12 9 14 18 17 19 21 21 21 22 23 24 24 22 20 19 17 16 15 14 13 12 11 10 8 6 2 1 2 3
12 9 7 2 3 4 3 2 2 1 2 1 2 6 11 9 11 17 20 20 20 22 22 23 24 24 22 21 19 18 17 15 14 13 12 11 10 8 6 4 2 3 4 4
18 11 6 7 8 6 5 5 5 3 2 1 1 6 8 10 12 15 18 21 23 19 23 24 24 23 22 20 19 17 15 14 14 13 12 10 9 8 6 3 3 4 5 5
7 5 7 8 10 8 7 4 5 5 3 3 4 9 12 15 16 16 16 18 18 21 23 23 23 21 20 19 18 17 16 14 12 11 10 10 9 8 6 5 4 5 7 6
16 14 11 9 9 8 6 6 5 7 4 6 10 13 14 13 10 15 15 14 14 14 17 18 20 20 19 18 17 15 14 13 12 11 10 9 9 7 7 7 7 7 6 7
7 9 8 8 9 7 6 6 8 11 12 11 13 13 13 15 18 17 17 17 17 17 15 16 18 19 18 16 15 13 13 13 12 10 9 9 9 8 7 7 5 5 6 8
7 8 12 10 15 11 6 11 16 16 14 17 20 19 16 16 17 17 16 14 13 9 16 16 17 16 15 13 12 11 12 12 12 11 10 10 9 8 7 7 6 7 9 11
8 7 9 10 11 15 14 17 17 15 14 16 18 16 19 17 17 18 18 13 7 11 13 14 14 12 11 11 11 11 11 12 12 12 12 10 8 10 11 11 10 10 12 13
8 8 8 13 16 12 15 18 21 20 20 19 20 23 23 19 17 15 11 13 12 13 13 12 11 10 9 10 10 10 10 11 11 12 13 11 9 10 13 14 15 16 16 15
13 13 12 13 16 15 23 22 22 23 22 20 20 19 19 18 16 17 10 10 11 11 11 9 8 7 7 8 8 9 9 10 11 13 14 14 13 14 16 17 18 18 18 16
16 15 13 16 21 22 13 18 25 24 24 22 20 18 19 19 16 12 15 11 10 9 8 7 5 4 5 5 6 6 7 8 9 11 12 13 15 16 18 19 19 19 18 17
18 16 17 19 18 15 18 19 23 23 24 23 21 18 14 9 10 13 11 9 7 6 5 4 2 3 4 4 4 5 8 9 10 12 15 16 16 15 15 15 15 16 17 16
17 16 18 20 18 16 17 18 16 16 16 17 20 18 17 15 13 10 8 7 5 5 3 2 1 1 2 3 4 7 9 11 13 15 16 17 17 17 18 19 18 16 15 15
19 18 17 19 21 19 20 18 18 16 15 16 16 12 11 10 9 8 7 5 4 3 2 0 1 3 4 4 5 7 8 9 11 12 13 14 15 15 14 15 16 16 17 17
Wind_Direction
250 267 274 270 274 270 214 230 227 275 254 279 268 272 265 200 118 91 59 51 49 55 50 62 68 84 112 127 137 146 146 148 147 150 145 146 142 142 139 140 139 137 136 128
294 266 257 281 274 257 242 237 248 265 280 283 284 66 138 141 165 134 130 94 81 74 70 71 85 80 97 111 117 136 140 143 142 144 146 142 140 136 133 134 135 132 122 116
278 331 311 295 240 197 226 197 196 221 241 325 332 243 207 184 187 179 136 130 120 106 100 85 86 98 99 112 127 134 138 142 147 148 144 135 137 138 131 131 132 119 114 112
282 339 325 243 224 220 218 255 225 270 270 249 197 330 326 197 173 182 149 144 126 117 126 125 111 127 130 131 139 145 144 143 144 145 140 141 139 134 132 132 123 117 116 118
252 256 287 294 142 197 164 290 198 209 158 114 63 78 342 54 15 174 143 124 117 142 147 138 141 148 143 149 151 148 145 148 151 146 140 140 136 134 128 125 121 122 121 119
152 227 266 253 164 161 141 293 194 167 167 156 135 50 266 155 124 106 127 139 137 140 143 149 156 153 151 148 148 144 144 146 146 142 142 140 137 131 128 129 128 127 119 114
224 272 280 252 185 157 34 257 193 179 171 158 182 198 190 127 93 125 140 140 144 145 146 151 155 159 144 146 140 140 143 143 144 144 142 139 132 130 131 132 132 127 116 104
161 207 275 161 81 187 260 203 185 194 185 185 160 91 151 140 147 149 142 142 146 137 138 148 158 158 147 143 143 145 145 143 144 143 140 139 137 133 136 140 132 124 128 120
188 211 249 215 248 257 229 256 181 194 192 170 154 163 159 153 145 141 140 143 150 144 138 146 157 160 150 148 151 149 145 141 142 142 138 138 142 142 138 138 142 138 135 136
140 268 258 246 256 243 253 268 187 230 191 169 166 166 167 154 154 152 152 147 153 148 147 151 161 161 156 155 155 151 147 146 145 142 141 142 139 141 148 150 143 143 159 149
257 282 301 272 260 249 225 233 207 143 225 209 183 180 170 170 165 159 157 161 166 162 159 157 159 160 159 159 159 154 150 148 146 145 144 142 143 144 144 139 148 163 144 28
227 253 193 274 311 242 221 230 236 207 204 176 167 162 150 181 170 165 162 165 168 170 165 162 163 164 164 166 166 158 153 154 154 154 153 152 145 128 121 129 137 135 32 357
264 227 217 272 279 283 254 222 220 235 230 202 186 174 165 149 168 167 169 171 173 174 172 167 168 169 170 171 172 169 164 163 163 163 161 161 163 165 159 154 160 217 339 329
246 175 268 205 253 232 260 247 153 336 318 221 181 183 167 151 163 169 175 183 181 174 172 174 175 176 176 176 177 176 173 171 171 170 171 172 176 178 175 169 183 261 327 313
244 213 232 234 190 210 168 187 212 218 293 329 85 161 168 158 162 173 181 182 178 175 174 176 176 176 178 180 180 177 175 174 175 175 177 178 177 174 175 183 238 276 295 283
242 234 205 205 210 203 196 203 201 218 226 211 141 131 162 170 165 163 168 171 163 169 178 178 179 176 177 181 181 179 179 180 180 178 177 180 182 187 190 219 220 260 256 280
181 195 203 214 195 188 193 212 203 178 172 170 155 140 142 141 141 149 161 173 180 179 180 180 177 175 176 181 183 181 180 179 183 184 190 194 199 199 214 218 241 268 272 278
216 219 188 168 174 168 161 165 172 149 147 165 146 131 132 134 132 141 147 154 154 161 175 178 177 176 177 180 184 185 185 185 190 195 197 201 205 215 221 235 249 268 290 297
172 161 158 154 148 146 142 141 140 132 132 143 130 114 123 128 133 135 141 144 148 150 164 171 177 180 180 183 187 189 192 194 197 201 207 208 209 218 230 233 251 277 288 298
126 115 119 116 126 127 131 142 135 126 132 135 126 117 109 119 129 130 136 132 146 159 163 168 175 179 182 185 192 198 202 205 208 209 210 213 218 230 236 245 262 277 289 300
105 110 113 121 105 113 139 139 125 113 130 135 126 121 119 123 128 131 128 120 128 148 159 166 172 179 185 190 199 203 208 212 214 216 212 208 225 250 259 263 269 270 281 289
97 96 102 111 104 99 112 120 120 119 118 119 125 125 123 120 120 113 120 134 133 150 156 162 171 182 189 197 208 214 220 223 223 218 214 220 240 247 256 262 263 267 272 281
78 84 90 102 102 100 94 99 104 108 110 116 118 122 118 119 125 123 109 137 140 145 146 151 162 175 190 210 219 227 231 230 229 230 230 235 257 268 266 265 269 271 270 271
77 80 92 94 96 89 82 76 93 99 101 101 102 108 116 111 91 101 121 128 133 130 131 138 154 175 206 221 231 237 243 245 247 242 243 262 268 270 269 272 271 274 272 272
72 69 68 73 76 78 87 94 93 90 92 90 88 85 89 94 112 110 118 117 116 115 126 131 178 216 231 225 234 246 252 260 258 262 269 270 269 271 274 276 276 279 279 269
74 72 68 66 73 76 80 84 83 91 96 86 79 80 82 88 97 103 102 95 92 93 101 126 179 257 277 270 244 255 261 262 265 267 273 276 278 280 285 285 284 281 264 272
70 69 67 65 59 68 79 83 82 75 83 90 87 78 80 85 86 84 77 71 62 62 57 56 299 317 308 294 282 279 279 281 283 285 280 276 271 273 277 277 279 281 277 272